CW9683 Weather Reports


Display with metric or nautical units.
time (UTC)temp
F
wind
direction
speed
MPH
gust
MPH
rain 1hr
in
rain 24hr
in
rain mn
in
humidity
%
barometer
mb
20221130031804 36 86 0.0 0.0 0.00 0.00 0.00 88 1023.5
20221130031304 36 86 0.0 0.0 0.00 0.00 0.00 88 1023.6
20221130030804 36 86 0.0 0.0 0.00 0.00 0.00 88 1023.7
20221130030304 36 86 0.0 0.0 0.00 0.00 0.00 88 1023.7
20221130025804 36 86 0.0 0.0 0.00 0.00 0.00 88 1023.8
20221130025305 36 86 0.0 0.0 0.00 0.00 0.00 88 1023.8
20221130023804 36 86 0.0 0.0 0.00 0.00 0.00 88 1023.7
20221130023303 36 86 0.0 0.0 0.00 0.00 0.00 87 1023.5
20221130022804 36 86 0.0 0.0 0.00 0.00 0.00 87 1023.5
20221130021804 36 86 0.0 0.0 0.00 0.00 0.00 87 1023.6
20221130021304 36 86 0.0 0.0 0.00 0.00 0.00 87 1023.6
20221130020804 36 86 0.0 0.0 0.00 0.00 0.00 86 1023.6
20221130020304 36 86 0.0 0.0 0.00 0.00 0.00 86 1023.6
20221130015804 36 86 0.0 0.0 0.00 0.00 0.00 87 1023.6
20221130015305 36 86 0.0 0.0 0.00 0.00 0.00 86 1023.7
20221130014803 36 86 0.0 0.0 0.00 0.00 0.00 86 1023.7
20221130014304 36 86 0.0 0.0 0.00 0.00 0.00 86 1023.6
20221130012804 36 86 0.0 0.0 0.00 0.00 0.00 85 1023.5
20221130012305 36 86 0.0 0.0 0.00 0.00 0.00 83 1023.5
20221130011804 36 86 0.0 0.0 0.00 0.00 0.00 83 1023.5
20221130011303 36 86 0.0 0.0 0.00 0.00 0.00 83 1023.4
20221130010804 37 86 0.0 0.0 0.00 0.00 0.00 83 1023.4
20221130010304 37 86 0.0 0.0 0.00 0.00 0.00 83 1023.3
20221130005804 37 86 0.0 0.0 0.00 0.00 0.00 83 1023.3
20221130005305 37 86 0.0 0.0 0.00 0.00 0.00 83 1023.3
20221130004804 37 86 0.0 0.0 0.00 0.00 0.00 83 1023.3
20221130004303 38 86 0.0 0.0 0.00 0.00 0.00 84 1023.4
20221130003804 38 86 0.0 0.0 0.00 0.00 0.00 83 1023.5
20221130003304 38 86 0.0 0.0 0.00 0.00 0.00 83 1023.5
20221130002804 38 86 0.0 0.0 0.00 0.00 0.00 82 1023.4
20221130002305 38 86 0.0 0.0 0.00 0.00 0.00 82 1023.3
20221130001804 38 86 0.0 0.0 0.00 0.00 0.00 81 1023.2
20221130000804 38 86 0.0 0.0 0.00 0.00 0.00 81 1023.4
20221130000304 38 86 0.0 0.0 0.00 0.00 0.00 82 1023.5
20221129235305 38 86 0.0 0.0 0.00 0.00 0.00 82 1023.6
20221129234304 38 86 0.0 0.0 0.00 0.00 0.00 79 1023.7
20221129233804 38 86 0.0 0.0 0.00 0.00 0.00 79 1023.7
20221129233303 38 86 0.0 0.0 0.00 0.00 0.00 79 1023.8
20221129232804 38 86 0.0 0.0 0.00 0.00 0.00 79 1023.7
20221129232305 39 86 0.0 0.0 0.00 0.00 0.00 79 1023.8
20221129230804 39 86 0.0 0.0 0.00 0.00 0.00 80 1023.7
20221129230304 39 86 0.0 0.0 0.00 0.00 0.00 80 1023.8
20221129225803 39 86 0.0 0.0 0.00 0.00 0.00 80 1023.8
20221129225305 39 86 0.0 0.0 0.00 0.00 0.00 80 1023.9
20221129224804 39 86 0.0 0.0 0.00 0.00 0.00 80 1023.8
20221129224304 39 86 0.0 0.0 0.00 0.00 0.00 81 1023.9
20221129223804 39 86 0.0 0.0 0.00 0.00 0.00 80 1023.7
20221129222804 39 87 0.0 0.0 0.00 0.00 0.00 81 1023.8
20221129222304 39 87 0.0 0.0 0.00 0.00 0.00 80 1023.9
20221129221804 39 87 0.0 0.0 0.00 0.00 0.00 80 1023.7
20221129221304 40 87 0.0 0.0 0.00 0.00 0.00 79 1023.6
20221129215804 40 87 0.0 0.0 0.00 0.00 0.00 77 1023.5
20221129215305 40 87 0.0 0.0 0.00 0.00 0.00 77 1023.5
20221129214803 40 87 0.0 0.0 0.00 0.00 0.00 77 1023.4
20221129214303 40 87 0.0 0.0 0.00 0.00 0.00 76 1023.4
20221129213804 40 87 0.0 0.0 0.00 0.00 0.00 76 1023.4
20221129213304 41 87 0.0 0.0 0.00 0.00 0.00 76 1023.3
20221129212804 41 87 0.0 0.0 0.00 0.00 0.00 73 1023.3
20221129212305 41 87 0.0 0.0 0.00 0.00 0.00 73 1023.1
20221129211304 41 87 0.0 0.0 0.00 0.00 0.00 73 1023.3
20221129205803 41 87 0.0 1.0 0.00 0.00 0.00 72 1023.1
20221129205305 41 87 0.0 0.0 0.00 0.00 0.00 72 1023.0
20221129204804 41 87 0.0 0.0 0.00 0.00 0.00 71 1023.1
20221129204303 41 87 0.0 0.0 0.00 0.00 0.00 71 1023.0
20221129203304 41 87 0.0 1.0 0.00 0.00 0.00 71 1022.7
20221129202804 41 85 0.0 1.0 0.00 0.00 0.00 71 1022.6
20221129202304 41 84 0.0 0.0 0.00 0.00 0.00 71 1022.5
20221129201804 41 84 0.0 0.0 0.00 0.00 0.00 72 1022.5
20221129201304 42 84 0.0 1.0 0.00 0.00 0.00 70 1022.4
20221129200804 42 83 0.0 0.0 0.00 0.00 0.00 71 1022.3
20221129200303 42 83 0.0 2.0 0.00 0.00 0.00 70 1022.3
20221129195804 42 68 0.0 2.0 0.00 0.00 0.00 70 1022.4
20221129195305 42 68 0.0 1.0 0.00 0.00 0.00 70 1022.3
20221129194304 42 68 1.0 3.0 0.00 0.00 0.00 70 1022.2
20221129193804 42 54 0.0 1.0 0.00 0.00 0.00 70 1022.1
20221129192804 42 52 0.0 0.0 0.00 0.00 0.00 70 1022.0
20221129192305 42 52 0.0 1.0 0.00 0.00 0.00 70 1022.0
20221129191804 41 52 0.0 2.0 0.00 0.00 0.00 71 1021.9
20221129191304 41 48 0.0 3.0 0.00 0.00 0.00 71 1021.9
20221129190804 41 48 0.0 3.0 0.00 0.00 0.00 70 1021.8
20221129190304 41 48 1.0 3.0 0.00 0.00 0.00 71 1021.9
20221129185804 41 55 2.0 5.0 0.00 0.00 0.00 71 1021.9
20221129185305 41 152 0.0 3.0 0.00 0.00 0.00 72 1021.7
20221129184804 41 156 2.0 5.0 0.00 0.00 0.00 71 1021.7
20221129183804 41 56 0.0 3.0 0.00 0.00 0.00 71 1021.7
20221129183304 41 69 2.0 5.0 0.00 0.00 0.00 72 1021.8
20221129182305 41 165 1.0 3.0 0.00 0.00 0.00 73 1022.0
20221129181304 40 197 0.0 0.0 0.00 0.00 0.00 72 1022.2
20221129180804 40 197 0.0 1.0 0.00 0.00 0.00 71 1022.2
20221129180304 40 196 0.0 0.0 0.00 0.00 0.00 72 1022.4
20221129175804 40 199 0.0 3.0 0.00 0.00 0.00 73 1022.5
20221129174804 40 277 1.0 3.0 0.00 0.00 0.00 73 1022.8
20221129174304 40 276 1.0 3.0 0.00 0.00 0.00 72 1023.0
20221129173804 40 276 0.0 1.0 0.00 0.00 0.00 74 1022.9
20221129173304 39 276 1.0 3.0 0.00 0.00 0.00 73 1022.9
20221129172305 39 336 0.0 0.0 0.00 0.00 0.00 74 1022.9
20221129171803 39 336 0.0 6.0 0.00 0.00 0.00 72 1022.9
20221129171304 39 317 0.0 1.0 0.00 0.00 0.00 73 1023.0
20221129170803 39 319 0.0 3.0 0.00 0.00 0.00 73 1022.9
20221129170304 39 316 0.0 3.0 0.00 0.00 0.00 74 1022.9
20221129165305 39 317 1.0 5.0 0.00 0.00 0.00 73 1023.0
20221129164803 39 351 0.0 3.0 0.00 0.00 0.00 74 1022.9
20221129163804 38 336 0.0 3.0 0.00 0.00 0.00 74 1022.9
20221129163304 38 336 1.0 3.0 0.00 0.00 0.00 74 1022.9
20221129162804 38 331 0.0 5.0 0.00 0.00 0.00 73 1023.1
20221129162305 38 331 0.0 3.0 0.00 0.00 0.00 73 1023.2
20221129161303 38 331 1.0 3.0 0.00 0.00 0.00 74 1023.3
20221129160804 38 331 0.0 5.0 0.00 0.00 0.00 75 1023.3
20221129155804 37 15 0.0 3.0 0.00 0.00 0.00 74 1023.3
20221129155306 37 15 1.0 3.0 0.00 0.00 0.00 75 1023.2
20221129154805 37 1 0.0 3.0 0.00 0.00 0.00 75 1023.1
20221129154305 37 344 1.0 3.0 0.00 0.00 0.00 76 1023.2
20221129153805 37 344 0.0 3.0 0.00 0.00 0.00 76 1023.2
20221129152804 36 5 0.0 2.0 0.00 0.00 0.00 76 1023.4
20221129152305 36 5 1.0 5.0 0.00 0.00 0.00 77 1023.3
20221129151805 36 5 3.0 6.0 0.00 0.00 0.00 77 1023.1
20221129151304 35 344 0.0 1.0 0.00 0.00 0.00 78 1023.0
20221129150805 35 344 0.0 1.0 0.00 0.00 0.00 77 1023.0
20221129150305 35 344 1.0 3.0 0.00 0.00 0.00 78 1023.0
20221129145805 35 329 1.0 3.0 0.00 0.00 0.00 78 1023.1
20221129145305 35 330 1.0 2.0 0.00 0.00 0.00 79 1023.0
20221129144805 35 329 0.0 1.0 0.00 0.00 0.00 79 1023.1
20221129144305 34 329 0.0 2.0 0.00 0.00 0.00 79 1023.0
20221129143805 34 329 0.0 6.0 0.00 0.00 0.00 79 1023.0
20221129142804 34 289 0.0 2.0 0.00 0.00 0.00 79 1022.7
20221129142305 34 289 0.0 0.0 0.00 0.00 0.00 81 1022.6
20221129141805 34 289 1.0 3.0 0.00 0.00 0.00 80 1022.7
20221129141305 33 290 0.0 5.0 0.00 0.00 0.00 80 1022.6
20221129140805 33 289 1.0 3.0 0.00 0.00 0.00 81 1022.5
20221129135804 33 289 1.0 3.0 0.00 0.00 0.00 82 1022.3
20221129135305 33 289 0.0 3.0 0.00 0.00 0.00 83 1022.3
20221129134805 33 288 0.0 3.0 0.00 0.00 0.00 83 1022.2
20221129134305 32 288 0.0 3.0 0.00 0.00 0.00 84 1021.9
20221129133805 32 288 0.0 5.0 0.00 0.00 0.00 84 1021.9
20221129133305 32 284 0.0 3.0 0.00 0.00 0.00 86 1021.9
20221129132805 31 288 1.0 3.0 0.00 0.00 0.00 87 1021.6
20221129132305 31 290 0.0 3.0 0.00 0.00 0.00 88 1021.5
20221129131804 31 289 0.0 2.0 0.00 0.00 0.00 89 1021.7
20221129131305 30 288 1.0 3.0 0.00 0.00 0.00 91 1021.6
20221129130805 30 291 0.0 3.0 0.00 0.00 0.00 91 1021.3
20221129130305 30 289 0.0 0.0 0.00 0.00 0.00 92 1021.1
20221129125805 29 289 0.0 1.0 0.00 0.00 0.00 92 1021.2
20221129125305 29 289 0.0 1.0 0.00 0.00 0.00 93 1021.3
20221129124305 28 289 0.0 0.0 0.00 0.00 0.00 93 1021.3
20221129123305 27 289 0.0 0.0 0.00 0.00 0.00 92 1021.1
20221129122805 27 289 0.0 0.0 0.00 0.00 0.00 92 1021.0
20221129122305 27 289 0.0 0.0 0.00 0.00 0.00 91 1020.8
20221129121305 27 289 0.0 0.0 0.00 0.00 0.00 91 1020.8
20221129120805 27 289 0.0 0.0 0.00 0.00 0.00 91 1020.7
20221129120305 27 289 0.0 0.0 0.00 0.00 0.00 91 1020.5
20221129115805 26 289 0.0 0.0 0.00 0.00 0.00 91 1020.5
20221129115305 26 289 0.0 0.0 0.00 0.00 0.00 90 1020.5
20221129114805 26 289 0.0 0.0 0.00 0.00 0.00 90 1020.4
20221129114305 26 289 0.0 0.0 0.00 0.00 0.00 90 1020.5
20221129113305 26 289 0.0 0.0 0.00 0.00 0.00 90 1020.2
20221129112805 26 289 0.0 0.0 0.00 0.00 0.00 90 1020.1
20221129112306 27 289 0.0 0.0 0.00 0.00 0.00 90 1020.0
20221129111805 27 289 0.0 0.0 0.00 0.00 0.00 90 1020.1
20221129111305 27 289 0.0 0.0 0.00 0.00 0.00 89 1020.0
20221129110805 27 289 0.0 0.0 0.00 0.00 0.00 90 1020.3
20221129110305 27 289 0.0 0.0 0.00 0.00 0.00 90 1020.0
20221129105804 27 289 0.0 0.0 0.00 0.00 0.00 90 1020.0
20221129105306 27 289 0.0 0.0 0.00 0.00 0.00 89 1019.6
20221129104805 27 289 0.0 0.0 0.00 0.00 0.00 89 1019.4
20221129104305 27 289 0.0 0.0 0.00 0.00 0.00 89 1019.3
20221129103305 28 289 0.0 0.0 0.00 0.00 0.00 89 1019.2
20221129102805 28 289 0.0 0.0 0.00 0.00 0.00 88 1019.1
20221129102306 28 289 0.0 0.0 0.00 0.00 0.00 87 1019.1
20221129101805 28 289 0.0 0.0 0.00 0.00 0.00 87 1018.8
20221129101305 28 289 0.0 0.0 0.00 0.00 0.00 88 1018.7
20221129100805 28 289 0.0 0.0 0.00 0.00 0.00 88 1018.8
20221129100305 28 289 0.0 0.0 0.00 0.00 0.00 88 1018.7
20221129095805 29 289 0.0 0.0 0.00 0.00 0.00 87 1018.7
20221129095305 29 289 0.0 0.0 0.00 0.00 0.00 87 1018.6
20221129094805 29 289 0.0 0.0 0.00 0.00 0.00 87 1018.8
20221129094305 29 289 0.0 0.0 0.00 0.00 0.00 86 1018.6
20221129093805 29 289 0.0 0.0 0.00 0.00 0.00 85 1018.4
20221129092805 29 289 0.0 0.0 0.00 0.00 0.00 84 1018.1
20221129092305 29 289 0.0 0.0 0.00 0.00 0.00 84 1018.1
20221129091305 30 289 0.0 0.0 0.00 0.00 0.00 84 1017.9
20221129090805 30 289 0.0 0.0 0.00 0.00 0.00 83 1018.0
20221129090305 30 289 0.0 0.0 0.00 0.00 0.00 83 1018.0
20221129085305 31 289 0.0 0.0 0.00 0.00 0.00 83 1017.9
20221129084804 31 289 0.0 0.0 0.00 0.00 0.00 82 1017.8
20221129084305 31 289 0.0 0.0 0.00 0.00 0.00 81 1017.6
20221129083805 31 289 0.0 0.0 0.00 0.00 0.00 81 1017.6
20221129083305 32 289 0.0 0.0 0.00 0.00 0.00 81 1017.3
20221129082804 32 289 0.0 0.0 0.00 0.00 0.00 81 1017.1
20221129082305 32 289 0.0 3.0 0.00 0.00 0.00 80 1017.1
20221129081804 32 289 0.0 1.0 0.00 0.00 0.00 80 1017.0
20221129081305 32 288 0.0 0.0 0.00 0.00 0.00 80 1017.0
20221129080804 32 288 0.0 0.0 0.00 0.00 0.00 80 1017.0
20221129080304 32 288 1.0 5.0 0.00 0.00 0.00 80 1016.9
20221129075804 32 255 0.0 3.0 0.00 0.00 0.00 81 1016.8
20221129075305 32 305 0.0 2.0 0.00 0.00 0.00 81 1016.7
20221129074805 32 306 1.0 5.0 0.00 0.00 0.00 82 1016.7
20221129074305 32 283 0.0 2.0 0.00 0.00 0.00 82 1016.5
20221129073304 32 300 0.0 3.0 0.00 0.00 0.00 84 1016.4
20221129072805 31 294 0.0 2.0 0.00 0.00 0.00 84 1016.2
20221129072306 31 294 0.0 3.0 0.00 0.00 0.00 84 1016.1
20221129071805 31 296 0.0 0.0 0.00 0.00 0.00 85 1016.1
20221129071305 31 296 0.0 1.0 0.00 0.00 0.00 84 1015.9
20221129070804 32 296 0.0 0.0 0.00 0.00 0.00 84 1015.7
20221129070305 32 297 0.0 0.0 0.00 0.00 0.00 83 1015.6
20221129065805 32 297 0.0 0.0 0.00 0.00 0.00 82 1015.6
20221129065305 32 297 0.0 0.0 0.00 0.00 0.00 82 1015.6
20221129064305 32 296 0.0 0.0 0.00 0.00 0.00 81 1015.5
20221129063805 32 296 0.0 0.0 0.00 0.00 0.00 82 1015.3
20221129063304 32 296 0.0 0.0 0.00 0.00 0.00 80 1015.2
20221129062804 33 296 0.0 0.0 0.00 0.00 0.00 80 1015.1
20221129062305 33 296 0.0 0.0 0.00 0.00 0.00 79 1015.0
20221129061805 33 296 0.0 0.0 0.00 0.00 0.00 79 1015.0
20221129061305 34 296 0.0 1.0 0.00 0.00 0.00 78 1014.9
20221129060805 34 296 0.0 0.0 0.00 0.00 0.00 76 1014.8
20221129060305 34 296 0.0 0.0 0.00 0.00 0.00 75 1014.7
20221129055805 35 296 0.0 0.0 0.00 0.00 0.00 75 1014.6
20221129055305 35 296 0.0 0.0 0.00 0.00 0.00 74 1014.5
20221129054805 35 296 0.0 2.0 0.00 0.00 0.00 74 1014.5
20221129054304 35 298 1.0 7.0 0.00 0.00 0.00 74 1014.4
20221129053805 35 292 1.0 3.0 0.00 0.00 0.00 74 1014.3
20221129053304 36 285 0.0 6.0 0.00 0.00 0.00 73 1014.3
20221129052804 36 276 0.0 3.0 0.00 0.00 0.00 73 1014.4
20221129052305 36 276 2.0 6.0 0.00 0.00 0.00 73 1014.4
20221129051804 36 5 0.0 3.0 0.00 0.00 0.00 73 1014.3
20221129051305 36 5 0.0 1.0 0.00 0.01 0.00 72 1014.3
20221129050814 36 5 1.0 3.0 0.00 0.01 0.00 72 1014.2
20221129050305 36 0 2.0 7.0 0.00 0.01 0.00 72 1014.1
20221129045805 36 261 2.0 7.0 0.00 0.01 0.01 72 1013.9
20221129045305 36 277 3.0 8.0 0.00 0.01 0.01 73 1013.9
20221129044305 37 277 2.0 9.0 0.00 0.01 0.01 72 1013.8
20221129043805 37 286 1.0 3.0 0.00 0.01 0.01 72 1013.8
20221129043304 37 315 3.0 8.0 0.00 0.01 0.01 72 1013.8
20221129042804 37 294 1.0 7.0 0.00 0.01 0.01 73 1013.7
20221129041804 37 348 0.0 3.0 0.00 0.01 0.01 73 1013.6
20221129041305 37 354 1.0 5.0 0.00 0.01 0.01 74 1013.5
20221129040804 37 342 2.0 5.0 0.00 0.01 0.01 74 1013.4
20221129035805 37 253 3.0 8.0 0.00 0.01 0.01 75 1013.2
20221129035305 37 281 1.0 6.0 0.00 0.01 0.01 75 1013.2
20221129034805 37 307 1.0 5.0 0.00 0.01 0.01 76 1013.1
20221129033804 37 313 1.0 7.0 0.00 0.01 0.01 77 1013.0
20221129033305 37 302 0.0 3.0 0.00 0.01 0.01 78 1012.9